Zurück zum Katalog

GEOTAIL

AktivWissenschaftHEO
NORAD 22049·PAYLOAD·🇯🇵 Japan

Gestartet Jul 24, 1992 von Cape Canaveral Space Force Station

Loading…

Nächste Überflüge (nächste 24 Stunden)

TLE

AlterndSource: Space-Track

Epoche: Sep 3, 2026, 02:11 UTC

1 22049U 92044A   26246.09134355 -.00000793  00000-0  00000-0 0  9996
2 22049  45.5136 340.2822 5647478 285.2595   2.0262  0.19146871 15916

Verfolge GEOTAIL in Echtzeit mit AllMySat

Download on the App Store